Regional Weather Roundup
Issued by NWS

Home | Current Version | Previous Version | Text Only | Print | Product List | Glossary Off
Versions: 1 2 3 4 5 6 7 8 9 10 11 12 13 14 15 16 17 18 19 20 21 22 23 24 25 26 27 28

000
ASUS45 KCYS 281510
RWRWY

WYOMING REGIONAL WEATHER ROUNDUP
NATIONAL WEATHER SERVICE CHEYENNE WY
900 AM MDT FRI JUL 28 2017

NOTE:  "FAIR" INDICATES FEW OR NO CLOUDS BELOW 12,000 FEET
WITH NO SIGNIFICANT WEATHER AND/OR OBSTRUCTIONS TO VISIBILITY.

WYZ001-281600-
YELLOWSTONE NATIONAL PARK

CITY           SKY/WX    TMP DP  RH WIND       PRES   REMARKS
LK YELLOWSTONE   N/A     53  49  86 E3        30.42S
W YELLOWSTONE  NOT AVBL

$$
WYZ002>013-054>058-071-098>099-281600-
NORTHERN WYOMING

CITY           SKY/WX    TMP DP  RH WIND       PRES   REMARKS
JACKSON        FAIR      54  46  76 N5        30.36S
CODY           FAIR      75  47  36 VRB3      30.19S
GREYBULL       FAIR      72  49  44 S6        30.12R
WORLAND        FAIR      70  54  56 W5        30.13R
SHERIDAN       FAIR      78  51  38 W3        30.10R
BUFFALO        FAIR      75  51  43 N9        30.16R
GILLETTE         N/A     72  61  68 MISG      30.10R
HULETT         FAIR      70  59  68 SW12G17   30.12S
NEWCASTLE      PTSUNNY   64  57  77 CALM      30.14S

$$
WYZ014>020-022>026-101>103-281600-
CENTRAL WYOMING

CITY           SKY/WX    TMP DP  RH WIND       PRES   REMARKS
BIG PINEY      FAIR      60  48  64 SW5       30.34S
PINEDALE       FAIR      59  46  63 W5        30.35S
DUBOIS         FAIR      61  43  51 NW7       30.33S
LANDER           N/A     65  50  58 N5        30.24R
RIVERTON       FAIR      69  47  45 W7        30.22R
CASPER         FAIR      71  55  56 SW14      30.18S
DOUGLAS        FAIR      67  57  70 W7        30.17R

$$
WYZ021-027>030-104>119-281600-
SOUTHERN WYOMING

CITY           SKY/WX    TMP DP  RH WIND       PRES   REMARKS
EVANSTON       FAIR      64  45  49 CALM      30.34R
KEMMERER         N/A     61  45  55 N8        30.35S
FORT BRIDGER   FAIR      68  43  40 N3        30.37R
ROCK SPRINGS   FAIR      66  42  41 VRB3      30.32R
RAWLINS        FAIR      69  46  43 VRB5      30.30S
SARATOGA       FAIR      64  48  55 SW5       30.33S
LARAMIE        FAIR      66  48  52 S5        30.31R
CHEYENNE       FAIR      66  58  75 CALM      30.22F
TORRINGTON     CLOUDY    68  62  81 S8        30.11R
PINE BLUFFS    CLOUDY    66  63  88 CALM      30.18S

$$




USA.gov is the U.S. government's official web portal to all federal, state and local government web resources and services.